Regional Weather Roundup
Issued by NWS Sioux Falls, SD

Home | Current Version | Previous Version | Graphics & Text | Print | Product List | Glossary On
Versions: 1 2 3 4 5 6 7 8 9 10 11 12 13 14 15 16 17 18 19 20 21 22 23 24 25 26 27 28 29 30 31 32 33 34 35 36 37 38 39 40 41 42 43 44 45 46 47 48 49 50
000
ASUS43 KFSD 200702
RWRFSD

WEATHER ROUNDUP FOR SE SOUTH DAKOTA/SW MINNESOTA/NW IOWA
NATIONAL WEATHER SERVICE SIOUX FALLS SD
200 AM CDT WED AUG 20 2014

NOTE: "FAIR" INDICATES FEW OR NO CLOUDS BELOW 12,000 FEET WITH NO
SIGNIFICANT WEATHER AND OR OBSTRUCTIONS TO VISIBILITY.


SDZ038>040-050-052>070-200800-
SOUTHEAST SOUTH DAKOTA

CITY           SKY/WX    TMP DP  RH WIND       PRES   REMARKS
CHAMBERLAIN    CLOUDY    69  65  87 SE9       29.74S
HURON          PTCLDY    67  61  81 SE8       29.74F
MADISON        FAIR      64  64 100 S6        29.81F
MITCHELL       MOCLDY    68  63  84 SE8       29.76F
SIOUX FALLS    CLEAR     67  63  87 SE5       29.80F
WINNER         FAIR      73  66  78 E9        29.73F
YANKTON        MOCLDY    66  64  94 NE8       29.77F
$$

MNZ071-072-080-081-089-090-097-098-200800-
SOUTHWEST MINNESOTA

CITY           SKY/WX    TMP DP  RH WIND       PRES   REMARKS
FAIRMONT       CLEAR     66  50  55 CALM      29.83S
JACKSON        PTCLDY    63  59  88 CALM      29.84F
LUVERNE        CLEAR     64  61  88 CALM      29.82F
MARSHALL       PTCLDY    66  61  82 S3        29.80F
MONTEVIDEO     PTCLDY    66  64  94 SW3       29.81S
PIPESTONE      PTCLDY    66  63  88 E3        29.82F
REDWOOD FALLS  CLEAR     66  63  90 CALM      29.81R
TRACY          PTCLDY    68  64  87 CALM      29.82F
WINDOM         PTCLDY    63  61  94 CALM      29.83F
WORTHINGTON    CLEAR     63   7  11 CALM      29.84F
$$

IAZ001>003-012>014-020>022-031-032-NEZ013-014-SDZ071-200800-
NORTHWEST IOWA

CITY           SKY/WX    TMP DP  RH WIND       PRES   REMARKS
CHEROKEE       PTCLDY    63  63  99 CALM      29.83S
DENISON        PTCLDY    66  66 100 CALM      29.81F FOG
ESTHERVILLE    PTCLDY    64  63  96 W5        29.84S
LE MARS        PTCLDY    64  63  94 CALM      29.81F
ORANGE CITY    PTCLDY    70  61  73 CALM      29.82S
SHELDON        CLEAR     61  61 100 E5        29.81F
SIOUX CITY     PTCLDY    69  66  90 E5        29.80F
SPENCER        CLEAR     63  61  93 E3        29.83F FOG
STORM LAKE     CLEAR     63  63 100 SE5       29.84F
$$

ABBREVIATIONS USED IN REMARKS
   TC - TEMPERATURE IN CELSIUS
  WCI - WIND CHILL INDEX
   HX - HEAT INDEX
  VSB - VISIBILITY



USA.gov is the U.S. government's official web portal to all federal, state and local government web resources and services.